This demonstration page uses our WeatherBlox Daily Observations layout. Learn more.

Left ArrowRight Arrow

44.89941, -97.11507

Hourly Observations for November 30, 2022

Temp ( °F °C ) Dew Point ( °F °C ) Humidity (%) Winds ( mph kmh ) Pressure ( in mb ) Visibility ( mi km ) Precip ( " mm )
12:53 am 00:53 Cloudy 16 -8.9 8 -13.3 70 70 WNW 25 41 29.98 1015 10 16 0.01 0.13
1:53 am 01:53 Cloudy 16 -8.9 7 -13.9 67 67 WNW 25 41 30.01 1016 10 16 0.00 0.00
2:53 am 02:53 Windy with Snow Likely 16 -8.9 9 -12.8 73 73 WNW 22 35 30.03 1017 6 10 0.01 0.13
3:53 am 03:53 Cloudy 15 -9.4 7 -13.9 70 70 W 21 33 30.04 1017 10 16 0.01 0.13
4:53 am 04:53 Cloudy 14 -10 7 -13.9 73 73 WNW 20 31 30.07 1018 10 16 0.00 0.00
5:53 am 05:53 Mostly Cloudy 13 -10.6 5 -15 70 70 WNW 29 46 30.10 1019 10 16 0.00 0.00
6:17 am 06:17 Partly Cloudy 12 -11.1 4 -15.6 69 69 NW 30 48 30.18 1022 10 16 0.00 0.00
6:53 am 06:53 Clear 11 -11.7 4 -15.6 73 73 NW 26 43 30.13 1020 10 16 0.00 0.00
7:53 am 07:53 Mostly Sunny 11 -11.7 5 -15 76 76 WNW 17 28 30.17 1022 10 16 0.00 0.00
8:17 am 08:17 Mostly Cloudy 12 -11.1 5 -15 73 73 WNW 21 33 30.24 1024 10 16 0.00 0.00
8:53 am 08:53 Mostly Cloudy 13 -10.6 6 -14.4 73 73 WNW 21 33 30.19 1022 10 16 0.00 0.00
9:53 am 09:53 Cloudy 15 -9.4 6 -14.4 67 67 WNW 24 39 30.22 1023 10 16 0.00 0.00
10:53 am 10:53 Cloudy 15 -9.4 6 -14.4 67 67 WNW 21 33 30.24 1024 10 16 0.00 0.00
11:53 am 11:53 Mostly Cloudy 17 -8.3 6 -14.4 61 61 WNW 17 28 30.25 1025 10 16 0.00 0.00
12:05 pm 12:05 Mostly Sunny 17 -8.3 6 -14.4 61 61 WNW 21 33 30.30 1026 10 16 0.00 0.00
12:53 pm 12:53 Sunny 19 -7.2 6 -14.4 56 56 WNW 17 28 30.25 1025 10 16 0.00 0.00
1:53 pm 13:53 Sunny 20 -6.7 7 -13.9 56 56 WNW 18 30 30.26 1025 10 16 0.00 0.00
2:53 pm 14:53 Sunny 20 -6.7 7 -13.9 56 56 WNW 18 30 30.27 1025 10 16 0.00 0.00
3:53 pm 15:53 Sunny 20 -6.7 7 -13.9 56 56 WNW 14 22 30.27 1025 10 16 0.00 0.00
4:53 pm 16:53 Clear 17 -8.3 6 -14.4 61 61 W 7 11 30.28 1026 10 16 0.00 0.00
5:53 pm 17:53 Clear 13 -10.6 6 -14.4 73 73 W 6 9 30.30 1026 10 16 0.00 0.00
6:53 pm 18:53 Clear 10 -12.2 4 -15.6 76 76 SW 7 11 30.32 1027 10 16 0.00 0.00
7:53 pm 19:53 Clear 10 -12.2 5 -15 80 80 SE 3 6 30.32 1027 10 16 0.00 0.00
8:53 pm 20:53 Clear 11 -11.7 5 -15 76 76 ESE 5 7 30.30 1026 10 16 0.00 0.00
9:53 pm 21:53 Clear 10 -12.2 5 -15 80 80 SSE 5 7 30.29 1026 10 16 0.00 0.00
10:53 pm 22:53 Clear 10 -12.2 5 -15 80 80 SSE 8 13 30.29 1026 10 16 0.00 0.00
11:53 pm 23:53 Clear 12 -11.1 6 -14.4 76 76 SSE 9 15 30.27 1025 10 16 0.00 0.00

Powered by AerisWeather